Regional Weather Roundup
Issued by NWS

Home | Current Version | Previous Version | Graphics & Text | Print | Product List | Glossary Off
Versions: 1 2 3 4 5 6 7 8 9 10 11 12 13 14 15 16 17 18 19 20 21 22 23 24 25 26 27 28 29 30 31 32 33 34 35 36 37 38 39 40 41 42 43 44 45 46 47 48 49 50

000
ASUS43 KDTX 022110
RWRMI
MICHIGAN HOURLY REGIONAL WEATHER ROUNDUP
NATIONAL WEATHER SERVICE DETROIT/PONTIAC MI
ISSUED BY NATIONAL WEATHER SERVICE GRAND RAPIDS MI
500 PM EDT WED SEP 02 2015

NOTE: "FAIR" INDICATES FEW OR NO CLOUDS BELOW 12,000 FEET WITH NO
SIGNIFICANT WEATHER AND/OR OBSTRUCTION TO VISIBILITY.

MIZ047>049-052>055-059>063-066>070-074>076-081>083-022200-
SOUTHEAST LOWER MICHIGAN

CITY           SKY/WX    TMP DP  RH WIND       PRES   REMARKS
ADRIAN         FAIR      91  65  41 W10       29.99F HX  93
ALMA           FAIR      88  71  56 W13       29.96F HX  94
ANN ARBOR      FAIR      89  67  47 NW12G21   29.98F HX  92
BAD AXE        FAIR      86  71  59 NW6       29.95F HX  91
DETROIT CITY   FAIR      90  70  51 W10       29.94F HX  95
DETROIT        PTSUNNY   89  71  55 SW13      29.97F HX  95
FLINT          FAIR      90  70  51 W14       29.96F HX  95
GROSSE ILE     FAIR      88  73  62 SW5       29.95F HX  96
HILLSDALE      FAIR      87  68  53 W8        30.01F HX  90
HOWELL         FAIR      89  68  48 W9        29.98S HX  93

CITY           SKY/WX    TMP DP  RH WIND       PRES   REMARKS
JACKSON        FAIR      86  69  56 W10       30.00F HX  90
LANSING        FAIR      88  71  57 W15G22    29.98F HX  94
MASON          FAIR      87  68  53 W9        29.99S HX  90
MONROE         FAIR      88  73  60 SW9       29.96F HX  95
MT. CLEMENS    MOSUNNY   88  71  56 W6        29.92F HX  94
PONTIAC        PTSUNNY   88  69  53 W17       29.97F HX  92
PORT HOPE        N/A     76  73  91 NE5       29.93F
PORT HURON     FAIR      84  73  70 CALM      29.94F HX  91
TRI CITIES     FAIR      78  72  81 SW8       29.95F
YPSILANTI      FAIR      93  68  43 W15       29.97F HX  97
$$
MIZ043>046-050>051-056>058-064>065-071>073-077>080-022200-
SOUTHWEST LOWER MICHIGAN

CITY           SKY/WX    TMP DP  RH WIND       PRES   REMARKS
BATTLE CREEK   FAIR      88  70  55 W12       30.00F HX  93
BENTON HARBOR  FAIR      84  69  60 VRB3      30.00F
BIG RAPIDS     FAIR      87  68  52 W6        29.96F HX  91
COLDWATER      PTSUNNY   91  64  41 W8        30.00F HX  92
HOLLAND        FAIR      84  70  62 W7        30.00F
GRAND RAPIDS   FAIR      88  69  53 W15       29.99F HX  92
KALAMAZOO      FAIR      87  67  51 W12G17    30.00F HX  90
MARSHALL       FAIR      89  70  53 W9        29.99F HX  94
MOUNT PLEASANT FAIR      85  72  64 W8        29.95F HX  91
MUSKEGON       PTSUNNY   82  69  64 SW8       29.98F
STURGIS        FAIR      84  72  65 CALM      30.00F
$$
MIZ016>042-022200-
NORTHERN LOWER MICHIGAN

CITY           SKY/WX    TMP DP  RH WIND       PRES   REMARKS
ALPENA         TSTM      76  71  85 E6        29.95F
BEAVER ISLAND  FAIR      73  70  89 CALM      29.95F
BELLAIRE       PTSUNNY   75  69  80 N9G22     29.95F
CADILLAC       FAIR      87  72  60 W9        29.97F HX  93
CHARLEVOIX       N/A     71  68  92 NE14G23   29.97F
GAYLORD        TSTM      72  68  87 W10G21    30.01R VSB 1/4
HOUGHTON LAKE  FAIR      81  68  64 N15G26    29.97F THUNDER
MANISTEE       FAIR      81  70  69 W9        29.96F
OSCODA         RAIN      70  64  82 W20G37    29.95R
PELLSTON       FAIR      76  69  79 NW8       29.96F
TRAVERSE CITY  CLOUDY    78  71  79 N9        29.95S THUNDER
LUDINGTON      FAIR      81  72  73 SW6       29.97F
$$
MIZ007>008-015-022200-
EASTERN UPPER MICHIGAN

CITY           SKY/WX    TMP DP  RH WIND       PRES   REMARKS
KINROSS        FAIR      73  66  78 N10       29.97F
MACKINAC ISLAN FAIR      73  70  88 CALM      29.96F
NEWBERRY       FAIR      77  68  74 E5        29.96F
S. S. MARIE    FAIR      73  65  75 NW8       29.96F
$$
MIZ004>006-011>014-085-022200-
CENTRAL UPPER MICHIGAN

CITY           SKY/WX    TMP DP  RH WIND       PRES   REMARKS
MANISTIQUE     FAIR      77  70  78 NE5       29.95F
ESCANABA       PTSUNNY   77  72  83 N7        29.93F
MENOMINEE      CLOUDY    70  63  78 N8G17     29.97R THUNDER
$$
MIZ001>003-009>011-084-022200-
WESTERN UPPER MICHIGAN

CITY           SKY/WX    TMP DP  RH WIND       PRES   REMARKS
IRON MOUNTAIN  LGT RAIN  73  67  81 N5        29.98S
HOUGHTON       CLOUDY    68  66  93 E5        29.96F
COPPER HARBOR    N/A     70  63  78 CALM      29.95F
IRONWOOD       CLOUDY    72  66  83 SE6       29.92S
$$

ABBREVIATIONS USED IN REMARKS
   TC - TEMPERATURE IN CELSIUS
  WCI - WIND CHILL INDEX
   HX - HEAT INDEX
  VSB - VISIBILITY




USA.gov is the U.S. government's official web portal to all federal, state and local government web resources and services.